TimeCST,TemperatureF,Dew PointF,Humidity,Sea Level PressureIn,VisibilityMPH,Wind Direction,Wind SpeedMPH,Gust SpeedMPH,PrecipitationIn,Events,Conditions,WindDirDegrees,DateUTC
12:12 AM,19.4,15.8,86,30.09,3.0,ENE,5.8,-,0.00,Snow,Light Snow,70,2012-12-28 06:12:00
12:24 AM,19.4,15.8,86,30.09,1.8,ENE,5.8,-,0.00,Snow,Light Snow,70,2012-12-28 06:24:00
12:39 AM,19.4,15.8,86,30.08,2.0,ENE,5.8,-,0.00,Snow,Light Snow,70,2012-12-28 06:39:00
12:54 AM,19.0,15.1,85,30.15,4.0,ENE,6.9,-,0.00,Snow,Light Snow,60,2012-12-28 06:54:00
1:14 AM,19.4,15.8,86,30.08,2.0,ENE,6.9,-,0.00,Snow,Light Snow,60,2012-12-28 07:14:00
1:38 AM,19.4,15.8,86,30.07,4.0,ENE,8.1,-,0.01,Snow,Light Snow,70,2012-12-28 07:38:00
1:54 AM,19.0,15.1,85,30.14,4.0,ENE,6.9,-,0.01,Snow,Light Snow,60,2012-12-28 07:54:00
2:54 AM,19.0,15.1,85,30.14,6.0,ENE,6.9,-,0.00,Snow,Light Snow,70,2012-12-28 08:54:00
3:05 AM,19.4,15.8,86,30.07,5.0,ENE,8.1,-,0.00,Snow,Light Snow,70,2012-12-28 09:05:00
3:54 AM,19.9,15.1,81,30.12,8.0,ENE,6.9,-,0.00,,Overcast,60,2012-12-28 09:54:00
4:19 AM,19.4,15.8,86,30.04,3.0,ENE,6.9,-,N/A,Snow,Light Snow,70,2012-12-28 10:19:00
4:32 AM,19.4,15.8,86,30.04,2.5,ENE,6.9,-,0.00,Snow,Light Snow,60,2012-12-28 10:32:00
4:54 AM,19.4,15.8,86,30.03,2.5,ENE,8.1,-,N/A,Snow,Light Snow,70,2012-12-28 10:54:00
5:05 AM,19.4,15.8,86,30.03,1.5,ENE,8.1,-,0.01,Snow,Light Snow,70,2012-12-28 11:05:00
5:27 AM,19.4,15.8,86,30.02,1.2,ENE,8.1,-,0.01,Snow,Light Snow,70,2012-12-28 11:27:00
5:34 AM,19.4,15.8,86,30.02,1.8,ENE,8.1,-,0.01,Snow,Light Snow,70,2012-12-28 11:34:00
5:50 AM,19.4,15.8,86,30.02,2.0,ENE,8.1,-,0.02,Snow,Light Snow,70,2012-12-28 11:50:00
5:54 AM,19.9,15.1,81,30.09,1.8,ENE,9.2,-,0.02,Snow,Light Snow,70,2012-12-28 11:54:00
6:54 AM,19.9,15.1,81,30.09,1.8,ENE,6.9,-,0.05,Snow,Light Snow,60,2012-12-28 12:54:00
7:08 AM,19.4,15.8,86,30.02,1.2,ENE,8.1,-,0.01,Snow,Light Snow,60,2012-12-28 13:08:00
7:54 AM,19.9,15.1,81,30.09,1.2,ENE,6.9,-,0.04,Snow,Light Snow,60,2012-12-28 13:54:00
8:54 AM,19.9,16.0,85,30.09,1.2,ENE,8.1,-,0.57,Snow,Light Snow,70,2012-12-28 14:54:00
9:41 AM,21.2,15.8,80,30.02,1.5,ENE,6.9,-,1.36,Snow,Light Snow,60,2012-12-28 15:41:00
9:54 AM,21.0,16.0,81,30.09,1.8,ENE,8.1,-,1.36,Snow,Light Snow,60,2012-12-28 15:54:00
10:14 AM,21.2,15.8,80,30.02,2.5,ENE,6.9,-,0.01,Snow,Light Snow,60,2012-12-28 16:14:00
10:26 AM,21.2,15.8,80,30.02,1.8,ENE,6.9,-,0.01,Snow,Light Snow,60,2012-12-28 16:26:00
10:35 AM,21.2,15.8,80,30.02,2.0,ENE,6.9,-,0.01,Snow,Light Snow,60,2012-12-28 16:35:00
10:54 AM,21.9,16.0,78,30.08,2.5,NE,6.9,-,0.01,Snow,Light Snow,50,2012-12-28 16:54:00
11:28 AM,21.2,15.8,80,30.00,2.5,ENE,8.1,-,N/A,,Overcast,70,2012-12-28 17:28:00
11:30 AM,21.2,15.8,80,30.00,7.0,NE,8.1,-,0.00,,Overcast,50,2012-12-28 17:30:00
11:54 AM,21.9,16.0,78,30.06,5.0,ENE,8.1,-,0.00,,Haze,60,2012-12-28 17:54:00
12:05 PM,21.2,17.6,86,29.98,3.0,ENE,6.9,-,0.00,Snow,Light Snow,60,2012-12-28 18:05:00
12:10 PM,23.0,17.6,80,29.98,2.0,ENE,8.1,-,0.00,Snow,Light Snow,60,2012-12-28 18:10:00
12:18 PM,21.2,17.6,86,29.97,1.5,ENE,6.9,-,0.00,Snow,Light Snow,60,2012-12-28 18:18:00
12:38 PM,23.0,17.6,80,29.96,1.2,NE,5.8,-,0.00,Snow,Light Snow,50,2012-12-28 18:38:00
12:54 PM,23.0,17.1,78,30.02,1.5,ENE,6.9,-,0.00,Snow,Light Snow,60,2012-12-28 18:54:00
1:08 PM,23.0,17.6,80,29.95,2.0,NE,5.8,-,0.00,Snow,Light Snow,40,2012-12-28 19:08:00
1:10 PM,23.0,17.6,80,29.95,2.0,NE,6.9,-,0.00,Snow,Light Snow,40,2012-12-28 19:10:00
1:18 PM,23.0,17.6,80,29.94,2.5,ENE,6.9,-,0.00,Snow,Light Snow,60,2012-12-28 19:18:00
1:31 PM,23.0,17.6,80,29.94,3.0,ENE,5.8,-,0.00,Snow,Light Snow,70,2012-12-28 19:31:00
1:54 PM,23.0,17.1,78,30.01,4.0,ENE,5.8,-,0.00,Snow,Light Snow,70,2012-12-28 19:54:00
2:19 PM,23.0,17.6,80,29.94,2.5,ENE,4.6,-,0.00,Snow,Light Snow,60,2012-12-28 20:19:00
2:29 PM,23.0,17.6,80,29.94,3.0,NE,4.6,-,0.00,Snow,Light Snow,50,2012-12-28 20:29:00
2:54 PM,24.1,18.0,77,30.01,3.0,NNE,8.1,-,0.00,Snow,Light Snow,20,2012-12-28 20:54:00
3:26 PM,23.0,17.6,80,29.95,2.5,North,8.1,-,0.00,Snow,Light Snow,10,2012-12-28 21:26:00
3:38 PM,23.0,17.6,80,29.95,3.0,NNE,6.9,-,0.00,Snow,Light Snow,20,2012-12-28 21:38:00
3:54 PM,23.0,17.1,78,30.01,2.5,North,8.1,-,0.00,Snow,Light Snow,10,2012-12-28 21:54:00
4:51 PM,21.2,17.6,86,29.96,2.5,NNE,4.6,-,0.01,Snow,Light Snow,20,2012-12-28 22:51:00
4:54 PM,21.9,17.1,82,30.03,2.5,North,4.6,-,0.01,Snow,Light Snow,10,2012-12-28 22:54:00
5:00 PM,21.2,17.6,86,29.96,3.0,North,4.6,-,0.00,Snow,Light Snow,350,2012-12-28 23:00:00
5:13 PM,21.2,17.6,86,29.96,4.0,North,6.9,-,0.00,Snow,Light Snow,350,2012-12-28 23:13:00
5:54 PM,21.0,17.1,85,30.04,3.0,North,5.8,-,0.00,Snow,Light Snow,360,2012-12-28 23:54:00
6:24 PM,19.4,15.8,86,29.97,4.0,North,6.9,-,0.00,Snow,Light Snow,350,2012-12-29 00:24:00
6:54 PM,21.0,17.1,85,30.03,6.0,North,6.9,-,0.00,,Overcast,350,2012-12-29 00:54:00
7:54 PM,19.9,16.0,85,30.03,7.0,North,8.1,-,N/A,,Overcast,360,2012-12-29 01:54:00
8:16 PM,19.4,15.8,86,29.96,6.0,North,6.9,-,N/A,,Overcast,350,2012-12-29 02:16:00
8:54 PM,19.0,15.1,85,30.03,6.0,North,8.1,-,N/A,,Overcast,350,2012-12-29 02:54:00
9:54 PM,19.0,15.1,85,30.04,7.0,NNW,6.9,-,N/A,,Overcast,340,2012-12-29 03:54:00
10:28 PM,19.4,15.8,86,29.97,8.0,NNW,6.9,-,N/A,,Overcast,340,2012-12-29 04:28:00
10:54 PM,19.0,15.1,85,30.04,9.0,NNW,8.1,-,N/A,,Overcast,340,2012-12-29 04:54:00
11:26 PM,19.4,15.8,86,29.96,8.0,NNW,10.4,-,N/A,,Overcast,330,2012-12-29 05:26:00
11:42 PM,19.4,15.8,86,29.96,7.0,NNW,9.2,-,N/A,,Overcast,330,2012-12-29 05:42:00
11:54 PM,19.0,15.1,85,30.03,8.0,NNW,8.1,-,N/A,,Overcast,330,2012-12-29 05:54:00